Back to catalog

THOR ABLESTAR DEB

AliveLEO
NORAD 172·DEBRIS·🇺🇸 United States

Launched Jun 29, 1961 from Cape Canaveral Space Force Station

Loading…

Next Passes (next 24 hours)

TLE

FreshSource: Space-Track

Epoch: Sep 10, 2026, 14:31 UTC

1 00172U 61015AY  26253.60549927  .00000379  00000-0  57367-3 0  9993
2 00172  67.0696 332.5906 0130760   1.4308 358.7105 13.59316668216722

Track THOR ABLESTAR DEB in real time with AllMySat

Download on the App Store